Location: Barrio de Buenos Aires
(28.4500°N, 16.2667°W)
Time: 18:04:07
(UTC+00:00)

DASH - Pass Details

Date: 24 January 2020
Orbit: 411 x 34878 km, 29.1° (Epoch: 22 February)

Event Time Altitude Azimuth Distance (km) Brightness Sun altitude
Rises 20:52:43 0° 225° (SW) 2,616 6.5 -29.5°
Reaches altitude 10° 20:54:09 10° 216° (SW) 2,007 5.6 -29.8°
Enters shadow 20:56:35 36° 178° (S) 1,426 4.3 -30.4°
